Tracking 19709 objects as of 17-Jun-2019
HD Live streaming from Space Station
objects crossing your sky now

SCOUT B DEB

Track SCOUT B DEB now!
10-day predictions


NORAD ID: 29173
Int'l Code: 1965-063X
Perigee: 1,149.8 km
Apogee: 2,364.1 km
Inclination: 69.3 °
Period: 121.5 minutes
Semi major axis: 8127 km
RCS: 0.015 m2 (small)
Launch date: August 10, 1965
Source: United States (US)
Launch site: WALLOPS ISLAND (WLPIS)

Note: This is SATELLITE DEBRIS
aabbcc
Your satellite tracking list
Your tracking list is empty




NASA's NSSDC Master Catalog

Two Line Element Set (TLE):
1 29173U 65063X   14098.00683139 +.00000094 +00000-0 +87837-3 0  9993
2 29173 069.2635 311.7270 0746991 002.1560 061.8794 11.84753377399143
Source of the keplerian elements: AFSPC